Погода в Колорадо-Спрингс

США     38°51′01″N   104°46′38″W
темп.,
°C
ветер,
м/с
пор.,
м/с
влажн.,
%
обл.,
%
осадки,
мм/ч
давл.,
гПа
погр.,
м
31 июля, сб
сб3100:00+21сз5854100 0.0 1017256
03:00+20ссз2355100 0.0 1018155
06:00+18ссз1259100 0.1 1019100
09:00+22с6752100 0.3 1021904
12:00+24ссв6650100 2.3 10201439
15:00+24св5648100 2.1 10191857
18:00+19юз4476100 9.6 1021284
21:00+18зсз4574100 10.1 1022195
1 августа, вс
вс100:00+17ссв257784 12.5 1024167
03:00+17ссв3477100 1.4 1023201
06:00+17с227593 1.8 1023175
09:00+17вюв237499 0.3 1025595
12:00+16ю3375100 0.9 1026454
15:00+16зюз2366100 0.1 1026335
18:00+19ююз455414 0.1 1023616
21:00+16ююз24695 0.0 102389
2 августа, пн
пн200:00+15юз11706 0.0 102353
03:00+14з1171100 0.0 102241
06:00+14ю117399 0.0 102251
09:00+18ююв226396 0.0 1021431
12:00+23юв42515 0.0 1018918
15:00+25ююв434491 0.3 10151245
18:00+17сз8984100 6.8 1018338
21:00+18ссз4668100 1.9 1017145
3 августа, вт
вт300:00+17зюз2372100 1.9 101776
03:00+17сз116997 0.0 101519
06:00+16зсз1172100 0.0 101712
09:00+20с2358100 0.1 1016236
12:00+22в135085 0.1 1015637
15:00+25ююв4344100 0.0 10131352
18:00+22сз125199 0.3 1013182
21:00+20юв115557 0.3 101414
4 августа, ср
ср400:00+18ссз11746 0.6 101668
03:00+17ссз227269 0.1 101641
06:00+16сз33605 0.1 101751
09:00+21св344422 0.0 1017645
12:00+26всв443325 0.0 10152396
15:00+28всв552715 0.0 10143004
18:00+27в453020 0.0 10132562
21:00+21с226078 0.3 1017285